Disclaimer

Please do not use the information listed here in-flight or in-navigation, as they are not provided to us by the airports but are provided by volunteers, so they might be outdated.

Search


Regions


Airport information page

Radio informations:
Tower (TWR) - 120.45 MHz
Automatic Terminal Information Service (ATIS) - 118.75 MHz
BUCURESTI RDR - 122.9 MHz

Airport informations:
Latitude: 44° 21' 44.00" N
Longitude: 028° 29' 18.00" E
Elevation: 353 feet - 108 meters
Operating hours: N/A
Operating agency: Military-civil joint use airport
Timezone: UTC+2(+3DT)
Fuel: N/A

Runway information:
18/36 - 11483 x 148 feet< - >3500 x 45 meters

Recent METARs:
LRCK 212100Z 03008KT 9999 OVC016 M01/M04 Q1023 NOSIG
LRCK 212130Z 05006KT 9999 OVC016 M01/M04 Q1023 NOSIG
LRCK 212200Z 04006KT 9999 OVC016 M01/M04 Q1023 NOSIG

Airport on the map: